ALK404 VCBI-VTBS

Flight info

Callsign ALK404
Flight time N/A
Altitude 41000
Route DORTA1D ESPAP P762 DWI L877 MIGAR L524 IBETO WILLA1C
Aircraft A339/H-SADE1E2E3GHIJ3J5M1P2RWXY/LB2D1

Departure

Time 2026-04-28 01:41
Airport Bandaranaike International Colombo Airport (VCBI)

Arrival

Time N/A
Airport Suvarnabhumi Airport (VTBS)
Time Latitude Longitude Altitude Speed Heading
2026-04-28 01:19 7.17596 79.88414 38 ft 0 kts 43°
2026-04-28 01:30 7.17586 79.88405 20 ft 3 kts 25°
2026-04-28 01:30 7.17571 79.88397 17 ft 2 kts
2026-04-28 01:30 7.17554 79.88395 40 ft 2 kts 347°
2026-04-28 01:31 7.17538 79.88399 39 ft 2 kts 328°
2026-04-28 01:31 7.17525 79.88407 36 ft 2 kts 319°
2026-04-28 01:31 7.17517 79.88414 40 ft 1 kts 314°
2026-04-28 01:31 7.17511 79.88421 39 ft 1 kts 312°
2026-04-28 01:32 7.17505 79.88427 38 ft 1 kts 310°
2026-04-28 01:32 7.17500 79.88433 39 ft 1 kts 309°
2026-04-28 01:32 7.17498 79.88436 40 ft 0 kts 309°
2026-04-28 01:35 7.17504 79.88428 38 ft 4 kts 309°
2026-04-28 01:35 7.17526 79.88399 36 ft 7 kts 307°
2026-04-28 01:35 7.17559 79.88355 41 ft 9 kts 307°
2026-04-28 01:36 7.17604 79.88296 41 ft 12 kts 306°
2026-04-28 01:36 7.17601 79.88225 40 ft 9 kts 230°
2026-04-28 01:36 7.17545 79.88176 41 ft 12 kts 219°
2026-04-28 01:36 7.17470 79.88118 41 ft 16 kts 218°
2026-04-28 01:37 7.17374 79.88045 40 ft 18 kts 216°
2026-04-28 01:37 7.17268 79.87965 40 ft 20 kts 217°
2026-04-28 01:37 7.17153 79.87877 40 ft 21 kts 217°
2026-04-28 01:37 7.17031 79.87785 40 ft 23 kts 218°
2026-04-28 01:38 7.16907 79.87690 40 ft 20 kts 217°
2026-04-28 01:38 7.16844 79.87613 40 ft 10 kts 262°
2026-04-28 01:38 7.16848 79.87593 40 ft 0 kts 286°
2026-04-28 01:39 7.16850 79.87587 40 ft 4 kts 287°
2026-04-28 01:39 7.16878 79.87540 41 ft 11 kts 306°
2026-04-28 01:39 7.16944 79.87506 41 ft 11 kts
2026-04-28 01:40 7.17012 79.87549 41 ft 12 kts 38°
2026-04-28 01:40 7.17115 79.87628 39 ft 40 kts 37°
2026-04-28 01:40 7.17605 79.88000 43 ft 133 kts 37°
2026-04-28 01:40 7.18531 79.88700 204 ft 187 kts 37°
2026-04-28 01:41 7.19591 79.89469 1041 ft 190 kts 37°
2026-04-28 01:41 7.20664 79.90237 2065 ft 188 kts 37°
2026-04-28 01:41 7.21507 79.91280 2701 ft 204 kts 68°
2026-04-28 01:41 7.21713 79.92735 3318 ft 219 kts 97°
2026-04-28 01:42 7.21397 79.94299 3811 ft 238 kts 106°
2026-04-28 01:42 7.20959 79.95986 4248 ft 257 kts 105°
2026-04-28 01:42 7.20589 79.97775 4773 ft 262 kts 101°
2026-04-28 01:42 7.20488 79.99651 4958 ft 274 kts 86°
2026-04-28 01:43 7.20798 80.01547 4996 ft 275 kts 78°
2026-04-28 01:43 7.21225 80.03426 5001 ft 275 kts 78°
2026-04-28 01:43 7.21635 80.05312 4997 ft 275 kts 79°
2026-04-28 01:43 7.21993 80.07204 5001 ft 275 kts 81°
2026-04-28 01:44 7.22312 80.09107 4998 ft 275 kts 82°
2026-04-28 01:44 7.22607 80.11010 4997 ft 275 kts 82°
2026-04-28 01:44 7.22894 80.12917 4997 ft 275 kts 82°
2026-04-28 01:44 7.23179 80.14823 5001 ft 275 kts 82°
2026-04-28 01:45 7.23463 80.16710 4996 ft 275 kts 82°
2026-04-28 01:45 7.23748 80.18614 5007 ft 277 kts 82°
2026-04-28 01:45 7.24039 80.20546 5459 ft 279 kts 82°
2026-04-28 01:45 7.24331 80.22467 6334 ft 277 kts 82°
2026-04-28 01:46 7.24625 80.24397 7030 ft 279 kts 82°
2026-04-28 01:46 7.24921 80.26339 7655 ft 282 kts 82°
2026-04-28 01:46 7.25218 80.28302 7899 ft 284 kts 82°
2026-04-28 01:46 7.25517 80.30270 8005 ft 284 kts 82°
2026-04-28 01:47 7.25815 80.32234 8010 ft 284 kts 82°
2026-04-28 01:47 7.26112 80.34197 8020 ft 284 kts 82°
2026-04-28 01:47 7.26409 80.36165 8014 ft 284 kts 82°
2026-04-28 01:47 7.26705 80.38130 8024 ft 284 kts 82°
2026-04-28 01:48 7.26998 80.40072 8020 ft 284 kts 82°
2026-04-28 01:48 7.27296 80.42043 8033 ft 286 kts 82°
2026-04-28 01:48 7.27656 80.44019 8456 ft 289 kts 76°
2026-04-28 01:48 7.28311 80.45923 9291 ft 287 kts 70°
2026-04-28 01:49 7.29016 80.47816 9972 ft 290 kts 70°
2026-04-28 01:49 7.29722 80.49748 10408 ft 302 kts 71°
2026-04-28 01:49 7.30465 80.51804 10578 ft 323 kts 71°
2026-04-28 01:49 7.31251 80.53990 10802 ft 339 kts 71°
2026-04-28 01:50 7.32063 80.56242 11336 ft 343 kts 71°
2026-04-28 01:50 7.32864 80.58461 11937 ft 346 kts 71°
2026-04-28 01:50 7.33706 80.60800 12554 ft 349 kts 71°
2026-04-28 01:50 7.34528 80.63082 13141 ft 352 kts 71°
2026-04-28 01:51 7.35362 80.65404 13730 ft 355 kts 71°
2026-04-28 01:51 7.36193 80.67752 14259 ft 357 kts 71°
2026-04-28 01:51 7.37027 80.70117 14798 ft 359 kts 71°
2026-04-28 01:51 7.37866 80.72501 15330 ft 362 kts 71°
2026-04-28 01:52 7.38713 80.74897 15865 ft 364 kts 71°
2026-04-28 01:52 7.39567 80.77310 16356 ft 367 kts 71°
2026-04-28 01:52 7.40427 80.79745 16866 ft 369 kts 71°
2026-04-28 01:52 7.41001 80.81369 17198 ft 371 kts 71°
2026-04-28 01:53 7.41869 80.83830 17684 ft 374 kts 71°
2026-04-28 01:53 7.42743 80.86304 18191 ft 376 kts 71°
2026-04-28 01:53 7.43628 80.88799 18616 ft 378 kts 71°
2026-04-28 01:53 7.44522 80.91306 19032 ft 381 kts 71°
2026-04-28 01:54 7.45412 80.93797 19459 ft 383 kts 71°
2026-04-28 01:54 7.46316 80.96330 19873 ft 386 kts 71°
2026-04-28 01:54 7.47226 80.98884 20309 ft 389 kts 71°
2026-04-28 01:54 7.48144 81.01464 20735 ft 391 kts 71°
2026-04-28 01:55 7.49065 81.04050 21158 ft 394 kts 71°
2026-04-28 01:55 7.49994 81.06661 21586 ft 397 kts 71°
2026-04-28 01:55 7.50928 81.09290 22015 ft 399 kts 71°
2026-04-28 01:55 7.51869 81.11934 22430 ft 403 kts 71°
2026-04-28 01:56 7.52816 81.14599 22853 ft 405 kts 71°
2026-04-28 01:56 7.53873 81.17249 23249 ft 409 kts 65°
2026-04-28 01:56 7.55247 81.19773 23631 ft 413 kts 59°
2026-04-28 01:56 7.56862 81.22173 23983 ft 415 kts 57°
2026-04-28 01:57 7.58496 81.24591 24347 ft 418 kts 57°
2026-04-28 01:57 7.60127 81.27025 24709 ft 421 kts 57°
2026-04-28 01:57 7.61767 81.29478 25050 ft 423 kts 57°
2026-04-28 01:57 7.63392 81.31913 25411 ft 426 kts 57°
2026-04-28 01:58 7.65050 81.34399 25752 ft 429 kts 57°
2026-04-28 01:58 7.66720 81.36901 26107 ft 431 kts 57°
2026-04-28 01:58 7.68400 81.39416 26454 ft 434 kts 57°
2026-04-28 01:58 7.70094 81.41953 26803 ft 436 kts 57°
2026-04-28 01:59 7.71787 81.44493 27137 ft 439 kts 57°
2026-04-28 01:59 7.73333 81.47161 27470 ft 440 kts 64°
2026-04-28 01:59 7.74565 81.50002 27804 ft 442 kts 70°
2026-04-28 01:59 7.75581 81.52940 28126 ft 445 kts 71°
2026-04-28 02:00 7.76598 81.55853 28449 ft 447 kts 71°
2026-04-28 02:00 7.77644 81.58817 28783 ft 449 kts 71°
2026-04-28 02:00 7.78698 81.61794 29101 ft 452 kts 71°
2026-04-28 02:00 7.79758 81.64787 29432 ft 454 kts 71°
2026-04-28 02:01 7.80824 81.67795 29753 ft 457 kts 71°
2026-04-28 02:01 7.81897 81.70829 30068 ft 460 kts 71°
2026-04-28 02:01 7.82973 81.73871 30363 ft 462 kts 71°
2026-04-28 02:01 7.84053 81.76927 30669 ft 464 kts 71°
2026-04-28 02:02 7.85138 81.79995 30975 ft 466 kts 71°
2026-04-28 02:02 7.86231 81.83090 31280 ft 469 kts 71°
2026-04-28 02:02 7.87327 81.86193 31581 ft 471 kts 71°
2026-04-28 02:02 7.88429 81.89312 31873 ft 473 kts 71°
2026-04-28 02:03 7.89533 81.92441 32174 ft 475 kts 71°
2026-04-28 02:03 7.90648 81.95598 32446 ft 477 kts 71°
2026-04-28 02:03 7.91762 81.98755 32691 ft 479 kts 71°
2026-04-28 02:03 7.92880 82.01926 32875 ft 480 kts 71°
2026-04-28 02:04 7.94001 82.05104 33063 ft 482 kts 71°
2026-04-28 02:04 7.95125 82.08292 33210 ft 483 kts 71°
2026-04-28 02:04 7.96240 82.11456 33354 ft 484 kts 71°
2026-04-28 02:04 7.97371 82.14664 33523 ft 485 kts 71°
2026-04-28 02:05 7.98497 82.17862 33706 ft 485 kts 71°
2026-04-28 02:05 7.99626 82.21068 33896 ft 484 kts 71°
2026-04-28 02:05 8.00754 82.24271 34049 ft 484 kts 71°
2026-04-28 02:05 8.01880 82.27469 34224 ft 484 kts 71°
2026-04-28 02:06 8.03005 82.30667 34407 ft 483 kts 71°
2026-04-28 02:06 8.04129 82.33863 34566 ft 483 kts 71°
2026-04-28 02:06 8.05252 82.37058 34747 ft 482 kts 71°
2026-04-28 02:06 8.06376 82.40252 34906 ft 482 kts 71°
2026-04-28 02:07 8.07496 82.43438 35092 ft 482 kts 71°
2026-04-28 02:07 8.08615 82.46622 35256 ft 481 kts 71°
2026-04-28 02:07 8.09733 82.49805 35452 ft 481 kts 71°
2026-04-28 02:07 8.10854 82.52995 35639 ft 481 kts 71°
2026-04-28 02:08 8.11970 82.56175 35830 ft 481 kts 71°
2026-04-28 02:08 8.13085 82.59353 36033 ft 481 kts 71°
2026-04-28 02:08 8.14188 82.62496 36226 ft 480 kts 71°
2026-04-28 02:08 8.15302 82.65670 36437 ft 480 kts 71°
2026-04-28 02:09 8.16418 82.68852 36646 ft 480 kts 71°
2026-04-28 02:09 8.17530 82.72022 36859 ft 479 kts 71°
2026-04-28 02:09 8.18644 82.75199 37068 ft 479 kts 71°
2026-04-28 02:09 8.19755 82.78368 37267 ft 479 kts 71°
2026-04-28 02:10 8.20865 82.81538 37470 ft 478 kts 71°
2026-04-28 02:10 8.21975 82.84704 37680 ft 478 kts 71°
2026-04-28 02:10 8.23080 82.87861 37889 ft 477 kts 71°
2026-04-28 02:10 8.24176 82.91024 38075 ft 477 kts 72°
2026-04-28 02:11 8.25261 82.94189 38270 ft 477 kts 72°
2026-04-28 02:11 8.26344 82.97356 38472 ft 477 kts 72°
2026-04-28 02:11 8.27426 83.00515 38638 ft 477 kts 72°
2026-04-28 02:11 8.28511 83.03679 38798 ft 477 kts 71°
2026-04-28 02:12 8.29596 83.06839 38962 ft 476 kts 71°
2026-04-28 02:12 8.30680 83.09997 39128 ft 476 kts 71°
2026-04-28 02:12 8.31764 83.13157 39266 ft 476 kts 71°
2026-04-28 02:12 8.32835 83.16278 39396 ft 476 kts 71°
2026-04-28 02:13 8.33918 83.19437 39569 ft 476 kts 71°
2026-04-28 02:13 8.35004 83.22605 39712 ft 476 kts 71°
2026-04-28 02:13 8.36089 83.25769 39861 ft 476 kts 71°
2026-04-28 02:13 8.37173 83.28932 40017 ft 475 kts 71°
2026-04-28 02:14 8.38255 83.32089 40178 ft 475 kts 71°
2026-04-28 02:14 8.39320 83.35201 40326 ft 475 kts 71°
2026-04-28 02:14 8.40412 83.38390 40477 ft 474 kts 71°
2026-04-28 02:14 8.41474 83.41491 40626 ft 474 kts 71°
2026-04-28 02:15 8.43627 83.47786 40854 ft 473 kts 71°
2026-04-28 02:15 8.44702 83.50928 40865 ft 472 kts 71°
2026-04-28 02:16 8.46846 83.57199 40871 ft 472 kts 71°
2026-04-28 02:16 8.48991 83.63480 40870 ft 472 kts 71°
2026-04-28 02:17 8.51121 83.69717 40866 ft 472 kts 71°
2026-04-28 02:17 8.53262 83.75995 40866 ft 472 kts 71°
2026-04-28 02:18 8.55403 83.82269 40862 ft 473 kts 71°
2026-04-28 02:18 8.57544 83.88552 40868 ft 473 kts 71°
2026-04-28 02:19 8.59683 83.94831 40869 ft 473 kts 71°
2026-04-28 02:19 8.61824 84.01121 40872 ft 473 kts 71°
2026-04-28 02:20 8.63953 84.07377 40873 ft 473 kts 71°
2026-04-28 02:20 8.66093 84.13672 40875 ft 473 kts 71°
2026-04-28 02:21 8.68230 84.19961 40865 ft 473 kts 71°
2026-04-28 02:21 8.70356 84.26220 40873 ft 473 kts 71°
2026-04-28 02:22 8.72504 84.32547 40869 ft 473 kts 71°
2026-04-28 02:22 8.74640 84.38844 40879 ft 474 kts 71°
2026-04-28 02:23 8.76765 84.45111 40869 ft 474 kts 71°
2026-04-28 02:23 8.78903 84.51421 40874 ft 474 kts 71°
2026-04-28 02:24 8.81041 84.57735 40872 ft 475 kts 71°
2026-04-28 02:24 8.83181 84.64060 40875 ft 475 kts 71°
2026-04-28 02:25 8.85321 84.70387 40870 ft 476 kts 71°
2026-04-28 02:25 8.87464 84.76726 40867 ft 476 kts 71°
2026-04-28 02:26 8.89615 84.83070 40876 ft 477 kts 71°
2026-04-28 02:26 8.91794 84.89406 40871 ft 477 kts 71°
2026-04-28 02:27 8.93960 84.95709 40871 ft 478 kts 71°
2026-04-28 02:27 8.96131 85.02044 40875 ft 476 kts 71°
2026-04-28 02:28 8.98300 85.08375 40879 ft 476 kts 71°
2026-04-28 02:28 9.00466 85.14704 40871 ft 476 kts 71°
2026-04-28 02:29 9.02634 85.21042 40880 ft 476 kts 71°
2026-04-28 02:29 9.04798 85.27371 40876 ft 476 kts 71°
2026-04-28 02:30 9.06962 85.33707 40880 ft 476 kts 71°
2026-04-28 02:30 9.09126 85.40045 40879 ft 476 kts 71°
2026-04-28 02:31 9.11289 85.46384 40878 ft 476 kts 71°
2026-04-28 02:31 9.13439 85.52689 40877 ft 476 kts 70°
2026-04-28 02:32 9.15597 85.59021 40873 ft 476 kts 70°
2026-04-28 02:32 9.17753 85.65352 40879 ft 475 kts 70°
2026-04-28 02:33 9.19909 85.71687 40881 ft 475 kts 70°
2026-04-28 02:33 9.22057 85.78003 40877 ft 475 kts 70°
2026-04-28 02:34 9.24207 85.84326 40872 ft 475 kts 70°
2026-04-28 02:34 9.26373 85.90647 40879 ft 474 kts 70°
2026-04-28 02:35 9.28586 85.96910 40880 ft 475 kts 70°
2026-04-28 02:35 9.30808 86.03208 40880 ft 475 kts 70°
2026-04-28 02:36 9.33025 86.09516 40873 ft 475 kts 70°
2026-04-28 02:36 9.35239 86.15827 40882 ft 475 kts 70°
2026-04-28 02:37 9.37433 86.22088 40882 ft 475 kts 70°
2026-04-28 02:37 9.39643 86.28396 40880 ft 475 kts 70°
2026-04-28 02:38 9.41854 86.34713 40877 ft 475 kts 70°
2026-04-28 02:38 9.44059 86.41018 40881 ft 475 kts 70°
2026-04-28 02:39 9.46265 86.47325 40879 ft 475 kts 70°
2026-04-28 02:39 9.48098 86.52568 40886 ft 475 kts 70°
2026-04-28 02:40 9.50304 86.58885 40881 ft 475 kts 70°
2026-04-28 02:40 9.52863 86.66213 40882 ft 475 kts 70°
2026-04-28 02:41 9.54692 86.71458 40880 ft 475 kts 70°
2026-04-28 02:41 9.56896 86.77778 40882 ft 475 kts 70°
2026-04-28 02:42 9.59095 86.84092 40875 ft 475 kts 70°
2026-04-28 02:42 9.61291 86.90397 40879 ft 474 kts 70°
2026-04-28 02:43 9.63486 86.96706 40876 ft 474 kts 70°
2026-04-28 02:43 9.65679 87.03014 40877 ft 474 kts 70°
2026-04-28 02:44 9.67857 87.09281 40877 ft 474 kts 70°
2026-04-28 02:44 9.70049 87.15591 40883 ft 474 kts 70°
2026-04-28 02:45 9.72239 87.21900 40883 ft 474 kts 70°
2026-04-28 02:45 9.74428 87.28210 40884 ft 474 kts 70°
2026-04-28 02:46 9.76617 87.34526 40884 ft 474 kts 70°
2026-04-28 02:46 9.78891 87.40801 40883 ft 474 kts 69°
2026-04-28 02:47 9.81260 87.47058 40881 ft 475 kts 69°
2026-04-28 02:47 9.83604 87.53311 40890 ft 475 kts 69°
2026-04-28 02:48 9.85927 87.59543 40885 ft 475 kts 69°
2026-04-28 02:48 9.88257 87.65806 40889 ft 475 kts 69°
2026-04-28 02:49 9.90587 87.72069 40889 ft 475 kts 69°
2026-04-28 02:49 9.92921 87.78347 40883 ft 474 kts 69°
2026-04-28 02:50 9.95246 87.84607 40886 ft 474 kts 69°
2026-04-28 02:50 9.97559 87.90835 40895 ft 474 kts 69°
2026-04-28 02:51 9.99884 87.97102 40894 ft 474 kts 69°
2026-04-28 02:51 10.02207 88.03367 40889 ft 474 kts 69°
2026-04-28 02:52 10.04526 88.09625 40894 ft 474 kts 69°
2026-04-28 02:52 10.06846 88.15890 40888 ft 474 kts 69°
2026-04-28 02:53 10.09161 88.22147 40897 ft 473 kts 69°
2026-04-28 02:53 10.11476 88.28406 40899 ft 473 kts 69°
2026-04-28 02:54 10.13775 88.34626 40885 ft 473 kts 69°
2026-04-28 02:54 10.16088 88.40890 40898 ft 473 kts 69°
2026-04-28 02:55 10.18397 88.47144 40892 ft 473 kts 69°
2026-04-28 02:55 10.20704 88.53399 40893 ft 473 kts 69°
2026-04-28 02:56 10.23012 88.59658 40888 ft 473 kts 69°
2026-04-28 02:56 10.25306 88.65877 40893 ft 473 kts 69°
2026-04-28 02:57 10.27615 88.72144 40891 ft 473 kts 69°
2026-04-28 02:57 10.29921 88.78407 40886 ft 473 kts 69°
2026-04-28 02:58 10.32229 88.84677 40890 ft 473 kts 69°
2026-04-28 02:58 10.34535 88.90949 40886 ft 474 kts 69°
2026-04-28 02:59 10.36823 88.97175 40895 ft 474 kts 69°
2026-04-28 02:59 10.39127 89.03450 40890 ft 474 kts 69°
2026-04-28 03:00 10.41430 89.09727 40895 ft 474 kts 69°
2026-04-28 03:00 10.43736 89.16015 40896 ft 474 kts 69°
2026-04-28 03:01 10.46040 89.22304 40895 ft 475 kts 69°
2026-04-28 03:01 10.48343 89.28592 40894 ft 475 kts 68°
2026-04-28 03:02 10.50650 89.34896 40890 ft 476 kts 68°
2026-04-28 03:02 10.52957 89.41206 40894 ft 476 kts 68°
2026-04-28 03:03 10.55267 89.47527 40898 ft 477 kts 68°
2026-04-28 03:03 10.57561 89.53810 40897 ft 477 kts 68°
2026-04-28 03:04 10.59868 89.60131 40894 ft 477 kts 68°
2026-04-28 03:04 10.62182 89.66475 40893 ft 478 kts 68°
2026-04-28 03:05 10.64492 89.72816 40896 ft 478 kts 68°
2026-04-28 03:05 10.66790 89.79126 40901 ft 479 kts 68°
2026-04-28 03:06 10.69101 89.85475 40897 ft 479 kts 68°
2026-04-28 03:06 10.71415 89.91839 40897 ft 479 kts 68°
2026-04-28 03:07 10.73726 89.98199 40884 ft 480 kts 68°
2026-04-28 03:07 10.75991 90.04588 40896 ft 480 kts 69°
2026-04-28 03:08 10.78177 90.11019 40897 ft 481 kts 69°
2026-04-28 03:08 10.80359 90.17402 40898 ft 481 kts 69°
2026-04-28 03:09 10.82564 90.23829 40901 ft 481 kts 69°
2026-04-28 03:09 10.84774 90.30269 40892 ft 481 kts 69°
2026-04-28 03:10 10.86980 90.36700 40897 ft 481 kts 68°
2026-04-28 03:10 10.89185 90.43136 40891 ft 482 kts 68°
2026-04-28 03:11 10.91393 90.49587 40885 ft 482 kts 68°
2026-04-28 03:11 10.93598 90.56032 40900 ft 482 kts 68°
2026-04-28 03:12 10.95788 90.62439 40889 ft 483 kts 68°
2026-04-28 03:12 10.97993 90.68894 40895 ft 483 kts 68°
2026-04-28 03:13 11.00202 90.75366 40895 ft 483 kts 68°
2026-04-28 03:13 11.02411 90.81841 40893 ft 484 kts 68°
2026-04-28 03:14 11.04617 90.88315 40890 ft 484 kts 68°
2026-04-28 03:14 11.06813 90.94764 40879 ft 485 kts 68°
2026-04-28 03:15 11.09018 91.01245 40890 ft 485 kts 68°
2026-04-28 03:15 11.11225 91.07736 40886 ft 485 kts 68°
2026-04-28 03:16 11.13430 91.14225 40900 ft 485 kts 68°
2026-04-28 03:16 11.15635 91.20722 40895 ft 485 kts 68°
2026-04-28 03:17 11.17839 91.27221 40896 ft 485 kts 68°
2026-04-28 03:17 11.21133 91.36940 40889 ft 485 kts 68°
2026-04-28 03:18 11.23334 91.43443 40891 ft 485 kts 68°
2026-04-28 03:18 11.25534 91.49947 40897 ft 485 kts 68°
2026-04-28 03:19 11.27732 91.56450 40896 ft 485 kts 68°
2026-04-28 03:19 11.29934 91.62970 40896 ft 485 kts 68°
2026-04-28 03:20 11.32117 91.69440 40895 ft 485 kts 68°
2026-04-28 03:20 11.34325 91.75985 40892 ft 485 kts 68°
2026-04-28 03:21 11.36482 91.82452 40895 ft 486 kts 69°
2026-04-28 03:21 11.38505 91.89029 40897 ft 486 kts 70°
2026-04-28 03:22 11.40521 91.95608 40900 ft 486 kts 69°
2026-04-28 03:22 11.42552 92.02176 40896 ft 486 kts 69°
2026-04-28 03:23 11.44590 92.08750 40889 ft 486 kts 69°
2026-04-28 03:23 11.46628 92.15334 40897 ft 486 kts 69°
2026-04-28 03:24 11.48662 92.21911 40896 ft 486 kts 69°
2026-04-28 03:24 11.50695 92.28489 40899 ft 486 kts 69°
2026-04-28 03:25 11.52716 92.35034 40903 ft 486 kts 69°
2026-04-28 03:25 11.54745 92.41612 40907 ft 486 kts 69°
2026-04-28 03:26 11.56775 92.48197 40911 ft 486 kts 69°
2026-04-28 03:26 11.58803 92.54784 40910 ft 487 kts 69°
2026-04-28 03:27 11.60830 92.61370 40902 ft 487 kts 69°
2026-04-28 03:27 11.62854 92.67953 40919 ft 487 kts 69°
2026-04-28 03:28 11.64933 92.74527 40915 ft 485 kts 66°
2026-04-28 03:28 11.67184 92.79748 40903 ft 483 kts 62°
2026-04-28 03:29 11.69996 92.85970 40921 ft 483 kts 62°
2026-04-28 03:29 11.72797 92.92213 40918 ft 483 kts 62°
2026-04-28 03:30 11.74176 92.95290 40913 ft 483 kts 62°